Regional Weather Roundup
Issued by NWS

Home | Current Version | Previous Version | Graphics & Text | Print | Product List | Glossary On
Versions: 1 2 3 4 5 6 7 8 9 10 11 12 13 14 15 16 17 18 19 20 21 22 23 24 25 26 27 28 29 30 31 32 33 34 35 36 37 38 39 40 41 42 43 44 45 46 47 48 49 50
000
ASUS45 KCYS 242010
RWRWY

WYOMING REGIONAL WEATHER ROUNDUP
NATIONAL WEATHER SERVICE CHEYENNE WY
100 PM MST SAT JAN 24 2015

NOTE:  "FAIR" INDICATES FEW OR NO CLOUDS BELOW 12,000 FEET
WITH NO SIGNIFICANT WEATHER AND/OR OBSTRUCTIONS TO VISIBILITY.

WYZ001-242100-
YELLOWSTONE NATIONAL PARK

CITY           SKY/WX    TMP DP  RH WIND       PRES   REMARKS
LK YELLOWSTONE   N/A     27  21  78 CALM      30.30S
W YELLOWSTONE  NOT AVBL

$$
WYZ002>013-054>058-071-098>099-242100-
NORTHERN WYOMING

CITY           SKY/WX    TMP DP  RH WIND       PRES   REMARKS
JACKSON        CLOUDY    19  18  93 CALM      30.36F
CODY           FAIR      48  25  40 W15G25    30.07S
GREYBULL       FAIR      33  26  75 W5        30.09F WCI  29
WORLAND        CLOUDY    31  24  75 CALM      30.10R
SHERIDAN       CLOUDY    46  31  55 NW24G32   29.95R
BUFFALO          N/A     53  32  44 NW20G40   29.96F
GILLETTE       CLOUDY    48  32  53 NW26G35   29.89F
HULETT           N/A    N/A N/A N/A MISG        N/A
NEWCASTLE      FAIR      41  32  70 N8        29.88F

$$
WYZ014>020-022>026-101>103-242100-
CENTRAL WYOMING

CITY           SKY/WX    TMP DP  RH WIND       PRES   REMARKS
BIG PINEY      FAIR      34  19  54 E3        30.27S
PINEDALE       FAIR      36  28  75 W18       30.25F WCI  25
DUBOIS         FAIR      37  28  70 N25G33    30.16F WCI  26
LANDER         PTSUNNY   41  25  53 CALM      30.09F
RIVERTON       FAIR      41  27  57 W15       30.07F
CASPER         CLOUDY    37  22  54 SW22G36   30.05F WCI  26
DOUGLAS        CLOUDY    47  23  38 W26G37    29.98F

$$
WYZ021-027>030-104>119-242100-
SOUTHERN WYOMING

CITY           SKY/WX    TMP DP  RH WIND       PRES   REMARKS
EVANSTON       FAIR      35  22  58 SW23      30.35F WCI  23
KEMMERER       CLOUDY    30  23  74 W7        30.36  WCI  23
FORT BRIDGER   FAIR      36  25  65 W24G33    30.33F WCI  24
ROCK SPRINGS   FAIR      36  19  50 W37G45    30.25F WCI  22
DIXON          CLOUDY    29  18  63 W3        30.32F
RAWLINS        CLOUDY    33  17  51 W28G44    30.17F WCI  20
SARATOGA       CLOUDY    34  19  55 W15       30.23S WCI  24
LARAMIE        CLOUDY    38  16  40 SW21G29   30.06F WCI  28
CHEYENNE       FAIR      47  16  29 W23G35    29.99F
TORRINGTON     PTSUNNY   47  24  40 W22G28    29.93F
PINE BLUFFS    MOCLDY    46  21  36 NW35G44   29.94F

$$



USA.gov is the U.S. government's official web portal to all federal, state and local government web resources and services.